Dewpoint
59 59 58 58 58 57 58 58 58 58 60 60 60 60 60 57 58 59 63 63 65 65 64 64 63 62 62 63 64 65 66 67 67 67 68 67 67 67 67 67 66 66 67
60 58 58 57 57 57 56 56 56 56 55 56 56 56 55 54 55 55 60 60 60 60 60 61 60 60 61 62 62 63 64 64 65 66 67 67 67 67 67 66 66 66 66
54 54 55 53 50 50 50 51 50 50 51 51 49 48 48 49 51 51 57 57 57 58 58 58 57 57 57 58 59 59 59 59 60 60 62 64 66 67 66 66 66 66 66
49 51 50 49 48 48 48 47 48 47 47 47 45 45 44 47 47 57 55 54 55 56 56 55 55 54 54 55 56 56 56 56 57 57 57 59 60 62 65 66 66 66 65
48 49 48 48 47 47 46 46 46 45 45 43 41 40 43 46 53 54 52 50 51 55 54 53 52 51 51 51 51 52 53 54 54 54 55 56 57 58 59 62 65 65 65
46 46 46 45 45 46 45 45 45 44 44 43 41 42 44 52 54 51 51 50 48 48 52 52 51 48 47 47 47 48 48 48 49 51 52 53 54 55 56 58 60 64 65
44 44 43 43 45 44 44 45 44 43 42 43 44 41 49 52 51 50 49 48 48 48 48 48 46 45 42 43 44 45 45 45 45 46 47 49 50 52 54 56 58 59 62
43 42 42 43 44 44 44 44 44 44 43 43 40 43 46 46 49 49 46 42 44 43 40 39 40 41 39 39 41 42 42 43 43 44 45 46 47 49 52 53 55 58 59
44 44 44 43 45 44 43 43 43 43 42 42 42 42 40 42 44 43 38 41 43 41 39 36 34 34 36 37 38 40 39 40 41 42 43 45 46 46 48 50 53 54 56
44 44 44 44 44 44 43 42 42 41 41 39 41 43 41 41 40 38 37 37 41 38 36 34 32 31 31 34 37 38 37 37 38 40 41 42 44 45 48 50 52 54 56
43 43 44 43 42 42 41 40 40 39 40 38 37 38 39 36 36 36 35 34 38 37 35 34 32 31 31 32 35 35 36 37 36 37 39 42 42 44 45 48 50 52 52
42 43 43 42 42 42 40 39 39 38 37 36 36 35 35 35 33 34 33 33 33 35 34 33 31 31 31 32 32 34 35 36 36 36 37 39 40 42 42 45 47 48 49
41 42 42 41 40 40 39 38 37 37 35 35 34 34 33 32 32 32 32 31 31 35 34 31 30 28 31 31 32 34 35 35 36 35 35 36 38 40 39 40 42 43 45
41 41 41 39 38 37 37 37 37 36 34 33 33 32 31 31 31 31 30 29 27 30 32 33 31 26 28 30 30 32 33 33 33 31 31 33 36 37 36 36 37 38 40
41 40 39 38 37 35 34 35 34 34 34 32 32 31 30 30 31 30 30 30 28 25 27 26 27 22 22 27 29 32 33 31 31 29 28 29 34 34 32 33 33 34 35
40 38 37 36 35 32 31 31 32 30 31 30 30 28 29 29 29 29 29 28 28 27 24 25 20 18 15 16 29 32 30 30 30 30 27 26 27 31 28 30 30 31 32
39 37 35 34 32 32 30 28 29 28 28 28 28 27 27 27 29 29 29 28 27 26 24 23 20 17 13 13 20 31 27 29 29 30 30 27 24 24 25 28 28 27 28
36 34 33 30 30 29 27 27 26 28 28 27 25 24 25 27 22 22 25 22 23 24 20 18 15 13 11 12 19 29 27 26 27 28 31 29 28 24 24 24 26 24 24
32 30 29 28 29 28 27 27 28 28 26 24 23 21 20 20 18 20 19 17 16 18 16 16 11 13 12 13 13 28 24 19 15 27 28 32 30 29 23 25 26 26 24
28 27 27 28 28 28 27 25 27 26 23 23 22 20 20 19 17 17 17 17 17 13 13 13 11 10 11 11 13 11 22 14 14 18 26 29 30 27 23 24 24 25 25
27 28 29 30 30 29 28 28 28 25 21 20 20 19 20 21 20 19 17 16 15 13 12 12 11 11 11 12 11 12 19 14 14 15 19 22 27 25 24 22 23 25 24
28 28 29 30 28 29 29 29 25 22 18 19 18 18 19 19 19 19 19 18 16 14 12 13 13 11 12 13 14 14 13 13 9 13 16 17 21 27 23 21 22 22 23
31 30 29 27 27 29 28 29 25 22 18 18 19 18 13 15 16 15 16 16 17 17 14 13 12 13 13 14 15 14 15 12 9 13 16 16 18 22 25 22 18 20 20
31 30 27 27 27 29 28 28 26 24 22 21 19 18 16 16 16 14 12 13 14 14 13 13 14 14 15 15 15 15 16 13 13 13 15 13 16 18 23 22 17 21 18
29 27 27 26 26 28 27 26 24 21 20 19 17 16 15 15 17 17 16 15 14 15 16 17 16 16 15 14 15 14 14 17 15 9 13 15 13 16 18 19 19 18 17
28 26 25 26 26 26 26 24 22 20 18 17 16 15 15 16 16 16 14 13 13 14 14 14 14 15 16 15 15 13 13 8 8 5 11 12 13 14 14 15 20 18 19
Wind_Speed
8 6 5 4 3 1 2 3 5 6 5 7 5 5 6 8 8 7 9 12 17 21 19 18 17 16 14 16 16 16 15 14 12 16 19 21 22 22 21 22 22 22 21
8 9 9 6 2 2 3 3 2 4 5 4 4 6 4 5 5 9 14 17 21 22 22 22 22 22 21 23 26 24 24 23 20 15 13 19 22 23 23 24 24 24 24
6 4 8 9 6 4 7 5 4 6 5 4 7 6 7 7 8 9 16 14 18 23 25 24 24 23 23 24 24 25 26 27 27 26 26 20 13 18 22 24 25 27 26
5 5 12 9 7 8 7 7 6 5 6 6 5 5 4 4 6 18 16 15 13 14 19 23 22 22 21 23 24 24 26 26 25 25 25 26 24 23 16 21 23 26 27
6 11 11 7 5 7 7 5 6 3 4 5 5 5 4 1 11 15 17 17 17 14 14 21 22 23 23 24 23 23 24 25 25 25 25 24 25 24 22 22 20 23 25
5 11 9 7 5 10 7 5 4 4 4 4 4 4 3 6 15 16 16 15 15 15 13 15 14 19 24 23 21 23 25 24 24 25 24 25 24 24 25 23 21 20 25
5 11 9 7 10 11 7 6 2 2 8 8 2 4 5 11 15 14 14 13 12 12 19 17 14 13 15 20 21 21 21 23 24 25 25 25 24 23 23 25 24 22 21
4 10 11 9 11 11 8 7 6 3 3 8 3 3 6 6 13 11 15 17 19 19 19 20 19 17 15 14 19 22 22 22 23 23 24 24 25 25 24 22 23 24 23
4 8 10 9 11 13 11 7 7 8 6 5 11 4 5 5 12 9 14 16 16 16 15 16 17 16 15 14 16 18 22 22 22 22 22 23 23 23 25 24 23 22 22
4 6 8 10 11 10 10 9 8 9 9 8 6 10 12 4 4 6 8 12 13 15 14 14 14 15 13 10 14 18 19 21 20 22 22 23 23 22 22 21 18 20 19
3 5 9 12 14 13 12 13 13 15 14 14 9 4 10 11 10 4 5 4 13 11 11 12 12 11 11 12 13 16 19 19 20 20 21 24 24 23 22 22 21 17 17
5 5 10 12 11 12 13 13 14 16 16 16 15 15 11 5 3 5 4 2 6 7 9 10 13 13 12 11 14 15 16 20 19 18 22 24 25 24 24 25 23 21 19
10 9 11 12 12 12 13 14 15 15 15 16 16 15 14 13 9 5 4 2 3 6 5 10 9 10 10 12 13 12 17 20 21 20 21 22 26 27 23 25 26 25 23
14 12 10 13 13 13 12 14 15 14 13 14 16 15 14 12 12 11 3 1 1 2 5 3 6 10 12 10 13 10 12 19 19 20 20 22 25 28 23 26 26 27 25
14 14 14 14 12 11 13 14 14 14 14 12 15 15 13 11 13 10 8 5 2 3 2 4 3 9 10 11 10 9 8 13 15 17 19 21 22 26 26 26 27 27 27
16 17 14 13 13 13 14 14 13 14 15 11 13 15 12 10 12 10 8 5 3 3 3 1 7 5 10 9 10 10 11 11 13 15 18 20 22 22 25 25 27 27 27
17 13 12 11 11 11 11 13 14 15 17 12 11 13 11 12 10 8 7 5 5 3 2 1 5 4 10 10 7 6 10 10 8 12 16 20 21 22 22 24 25 26 27
15 16 14 11 9 11 11 13 13 13 15 13 13 15 10 7 9 8 4 2 7 5 4 2 5 9 10 11 5 6 8 7 6 6 11 15 19 21 22 22 25 25 26
17 14 13 12 12 10 11 10 12 13 14 15 16 16 12 12 11 7 9 4 2 3 3 4 6 6 8 11 5 5 9 10 8 5 6 10 16 20 21 22 23 25 26
17 16 13 11 11 12 12 11 13 16 16 15 15 15 12 11 10 10 10 7 5 9 13 14 9 7 5 3 4 8 7 13 11 10 11 13 12 15 20 20 22 23 24
18 16 14 11 10 11 8 12 10 16 15 15 15 16 15 16 15 13 8 8 10 12 11 12 9 5 5 5 7 8 2 7 7 12 7 11 6 7 12 17 18 22 24
18 18 17 13 11 7 5 12 13 16 15 17 16 15 15 15 18 19 18 20 16 11 11 8 8 7 6 5 6 7 9 5 2 11 7 10 9 9 10 15 22 22 23
17 18 14 12 11 7 8 14 15 14 14 14 15 14 12 12 14 14 16 18 21 21 17 12 13 7 3 6 6 7 9 8 5 9 5 6 9 9 10 14 23 23 24
21 19 17 13 12 6 18 23 22 18 19 16 17 15 13 8 13 16 14 16 14 13 12 13 9 5 5 5 4 3 3 9 8 11 11 6 9 7 7 11 24 21 24
14 17 15 13 13 8 17 22 20 17 17 15 14 13 11 12 15 16 15 14 11 10 11 13 13 11 15 17 13 8 12 5 5 7 13 4 8 6 4 8 14 22 24
16 16 15 12 12 10 18 19 17 15 16 14 14 11 11 12 15 17 17 15 16 11 12 11 9 8 8 13 16 17 12 13 5 5 6 4 11 6 4 5 12 14 13
Wind_Direction
159 168 180 185 184 110 62 22 8 18 353 12 52 44 35 37 41 47 82 69 78 72 67 59 54 44 29 17 15 12 2 354 323 263 242 237 233 228 224 223 223 222 219
159 176 177 174 151 129 82 38 33 9 359 11 24 37 55 32 8 77 92 80 81 77 71 64 60 53 46 43 40 38 34 28 15 352 302 254 241 233 227 226 224 221 222
88 85 110 114 97 60 30 21 37 49 27 25 70 66 56 51 95 68 106 95 77 73 77 72 65 57 49 42 37 34 33 28 23 18 17 7 317 263 243 230 225 222 223
61 100 104 94 54 67 55 40 35 54 40 47 49 36 50 58 80 98 91 86 91 87 75 77 72 67 54 42 38 32 30 24 17 12 8 7 2 2 309 253 237 233 224
66 109 107 101 59 96 70 50 52 60 44 31 18 4 346 245 111 101 100 95 96 105 97 84 79 74 61 49 36 32 26 22 15 9 5 1 358 357 351 343 258 243 242
117 110 106 111 91 101 80 49 52 44 82 28 331 297 317 96 102 107 105 103 98 97 116 102 89 68 65 59 41 31 25 19 12 7 4 357 351 348 346 342 333 284 244
120 137 136 110 109 100 88 59 28 89 38 9 54 59 74 103 112 108 103 94 85 83 66 74 62 72 59 55 39 32 22 12 8 3 358 350 347 343 339 339 333 319 313
121 135 135 120 128 111 94 66 63 81 89 39 93 90 116 78 73 77 73 72 79 77 74 67 63 62 51 43 32 26 20 13 6 1 355 348 347 342 339 331 335 333 315
120 113 129 115 133 123 116 92 81 97 127 64 65 123 149 162 109 50 66 79 79 82 79 72 64 60 57 49 26 25 16 13 4 0 354 347 343 341 332 330 330 331 327
98 105 107 112 106 110 110 94 79 71 115 114 83 52 69 105 134 147 55 78 93 79 77 74 66 56 52 59 44 37 23 16 6 359 356 349 342 339 339 334 331 344 352
133 123 121 116 108 103 96 82 78 77 88 89 87 81 83 64 56 118 148 90 82 74 80 86 92 86 71 55 41 28 25 20 10 7 5 1 353 349 351 344 348 347 354
171 146 123 121 118 116 111 102 92 89 87 90 86 76 81 93 68 84 107 49 106 72 85 78 69 63 74 53 38 33 32 27 15 23 18 14 8 1 0 0 2 5 3
170 158 136 129 120 121 116 108 99 96 96 100 101 95 81 68 60 69 91 107 115 165 94 72 82 75 86 58 42 39 43 37 32 31 29 23 17 9 17 11 9 7 10
169 162 145 134 129 124 119 118 110 105 99 97 110 105 99 85 76 70 90 88 132 115 83 135 56 55 78 69 56 53 47 39 39 37 27 26 23 16 22 19 15 13 12
155 147 143 142 140 131 130 123 122 117 113 103 108 112 111 105 103 91 84 79 104 167 105 29 112 45 71 59 55 57 61 49 40 40 34 29 27 25 28 20 18 17 15
145 145 143 142 144 137 130 126 121 113 110 101 104 105 101 122 119 111 114 109 90 131 155 82 57 85 58 51 46 55 82 64 47 50 45 37 33 29 29 27 22 19 19
138 138 144 146 145 141 133 123 120 115 112 109 109 109 105 108 123 132 152 158 163 180 111 332 111 89 52 44 25 94 108 84 58 42 54 48 36 35 29 30 26 24 23
134 138 142 144 128 125 129 130 127 128 122 121 98 82 72 111 94 91 127 107 181 193 169 160 79 61 51 15 16 79 67 80 61 40 54 62 48 38 32 29 30 27 26
130 125 126 132 133 134 124 115 117 106 101 93 88 84 71 79 70 65 70 60 50 111 130 127 108 51 43 28 356 77 71 39 21 25 29 86 59 40 39 34 29 31 28
127 130 126 136 133 130 124 117 109 104 94 91 87 80 73 68 64 76 68 38 27 88 97 99 92 62 20 322 15 38 98 59 24 10 38 32 82 47 39 37 32 36 35
128 126 120 104 85 93 82 114 121 112 108 97 89 90 83 79 75 70 71 41 68 88 95 91 79 78 25 20 22 329 57 113 49 19 358 28 59 58 37 30 38 33 38
114 114 110 104 97 103 99 162 140 130 127 116 114 106 98 93 84 81 76 67 62 82 91 90 82 80 32 357 346 1 0 90 17 17 339 26 12 44 40 34 34 38 38
123 121 117 123 121 110 191 154 134 134 131 134 134 134 125 115 102 91 77 71 71 73 80 94 90 69 38 10 339 23 18 86 63 352 340 26 4 38 19 32 31 39 33
150 153 136 131 119 106 122 113 106 104 99 98 100 107 109 119 132 108 92 83 82 85 86 95 102 110 62 43 31 29 79 120 100 35 11 39 357 21 7 35 33 35 34
124 122 123 129 130 137 121 111 105 96 92 93 94 96 99 99 126 121 112 109 101 85 91 98 83 64 57 52 49 88 70 124 79 23 15 25 355 342 317 45 31 31 33
116 116 115 125 125 122 125 116 110 111 108 100 88 100 110 113 118 119 123 127 116 111 100 83 70 58 43 53 58 66 79 78 95 47 347 58 1 4 5 353 36 20 26